Classifiche virtuali

Quarta in italia per numero di finisher, la maratona di Venezia attrae annualmente centinaia di runners da tutto il mondo grazie all’unicità del suo percorso lussureggiante.

 

La maratona di Venezia è una maratona veloce? 

I primi 3/4 di gara consentono di correre a ritmi elevati, grazie all’assenza di difficoltà altimetriche e lunghi rettilinei, ma se la teoria che “la vera maratona inizi al 30° km” ha una base di veridicità, in questa gara si materializza con assoluta certezza.

Abbandonata la terraferma infatti, l’attraversamento del ponte della libertà espone i corridori alle insidie del vento lagunare, mentre raggiunta la città, le suole dei podisti già consumate dallo scorrere dei chilometri, devono aggrapparsi su ben 14 ponticelli prima di guadagnare lo scenografico traguardo in piazza San Marco. 

 

 

Il clima

Le insidie climatiche svolgono come sempre, un ruolo determinante.

Se l’edizione del 2018 verrà ricordata per l’acqua alta che invadeva parte del percorso, quella del 2019 passerà agli annali come la maratona di Venezia più calda della storia, con una temperatura che ha sfiorato i 20° gradi nel finale di gara.

I valori elevati associati ad umidità relativa superiore all’ 80% e radiazione solare fino a 300/350 w/m^2, hanno determinato una netta diminuzione del rendimento atletico dei corridori negli ultimi chilometri di gara.

Ricordiamo che le temperature medie attese in questo periodo dell’anno a Venezia, dovrebbero essere comprese, nell’arco orario in cui si svolge la gara, tra 12° e 15°, ovvero ideali per l’ottenimento di buone prestazioni per atleti acclimatati (https://runbull.net/performance/scopri-il-modello/).

Se giungete a Venezia per correre la maratona da località con un clima più freddo, vi consigliamo di trascorrere qualche giorno in città, per metabolizzare le peculiarità del clima lagunare ed incrementare il vostro adattamento.

 

Prestazione Assoluta

 

Quanto hanno influito condizioni climatiche e difficoltà del percorso sulla tua prestazione? Scopri la  tua Prestazione Assoluta, il valore elaborato dall’algoritmo Runbull che esprime il valore potenziale di una prestazione atletica in relazione ai parametri altimetrici ed ambientali.

Di seguito puoi trovare in anteprima i risultati normalizzati dei primi 300 atleti classificati.

Ti ricordiamo che Scaricando gratuitamente l’APP e sincronizzando il tuo device, puoi visualizzare direttamente sul tuo smartphone, il valore Assoluto di tutte le tue corse, con un grado di elevata accuratezza grazie alla valutazione del livello personale di acclimatamento.

POSPOS M_WCOGNOMENOMEPREST. RELATIVATIME LOST DISLIVELLOTIME LOST WEATHERPREST. ASSOLUTA
11ANBESALENCHO TESFAYE02:10:4900:00:1200:00:2802:10:09
22KIPROPHENRY02:10:5500:00:1200:00:2802:10:15
33KIMTAIANDREW BEN02:11:5800:00:1300:00:3202:11:13
44GATHERUDANIEL NDIRITU02:12:5300:00:1300:00:3502:12:05
55MENGICHMOSES02:13:1800:00:1300:00:3602:12:29
66JAITEHOUSMAN02:25:3900:00:1700:01:1702:24:05
77BOUDALIASAID02:26:5600:00:1700:01:2102:25:18
88NASEFAHMED02:27:1000:00:1700:01:2102:25:32
99BELLUSCHIMICHELE02:29:1400:00:1800:01:2802:27:28
101KORIRJUDITH02:29:2000:00:1800:01:2802:27:34
112JEROPCYNTHIA02:31:3300:00:1900:01:3502:29:39
1210KIPRONOAUGUSTUS KIPKULEI02:31:4800:00:1900:01:3602:29:53
133WASHOMEKA WAKE02:34:3600:00:2000:01:4402:32:32
1411BORTOLUSSIGIANNI02:37:0300:00:2000:01:5202:34:51
154KEBEYABRENDAH02:38:0400:00:2100:01:5502:35:48
1612VIVIANLUIGI02:38:1600:00:2100:01:5502:36:00
1713TIBERIOGIANLUCA02:40:5300:00:2200:02:0302:38:28
185ŠUSTICNIKOLINA02:41:3700:00:2200:02:0502:39:10
1914LUBRANOGABRIELE02:41:5500:00:2200:02:0602:39:27
2015SIMOLIENRICO02:42:4600:00:2200:02:0902:40:15
2116BUCKLESTEPHEN02:43:3700:00:2200:02:1102:41:04
2217STEFANIALEX02:44:1400:00:2200:02:1302:41:39
2318PAGGIARINANDREA02:45:1500:00:2300:02:1602:42:36
2419RIGONIMICHELE02:45:2000:00:2300:02:1602:42:41
2520ZANATTAMASSIMO02:46:5200:00:2300:02:2002:44:09
2621DIALLOOUMAR02:48:1200:00:2400:02:2402:45:24
2722ANDREBENOIT02:48:3700:00:2400:02:2502:45:48
2823GASPONCARLO02:48:5400:00:2400:02:2602:46:04
2924COSTACL?UDIO02:49:0700:00:2400:02:2702:46:16
3025MARRANGONIALBERTO02:49:2800:00:2400:02:2802:46:36
3126RAMPAZZOANDREA02:49:3400:00:2400:02:2802:46:42
3227LIZZADANIELE02:49:4700:00:2400:02:2802:46:55
3328SALVESTRINABRAMO02:50:2700:00:2400:02:3002:47:33
3429ROSELLIFRANZI02:50:3900:00:2400:02:3102:47:44
3530AUSTRUITBENO?T02:50:4100:00:2400:02:3102:47:46
3631BAGATELLALUCA02:51:1000:00:2400:02:3202:48:14
3732BATTAGGIAMARCO02:51:2500:00:2400:02:3302:48:28
3833PHUAYUN02:51:4100:00:2500:02:3402:48:42
3934AVONDAVID02:52:1600:00:2500:02:3502:49:16
4035SPADOTTOENRICO02:52:1100:00:2500:02:3502:49:11
4136DE CLERCQNELIS02:52:2200:00:2500:02:3602:49:21
4237HARRISTONY02:52:3500:00:2500:02:3602:49:34
4338SCARIOTROBERTO02:52:4400:00:2500:02:3702:49:42
4439TOSAANDREA02:52:4100:00:2500:02:3602:49:40
4540CARONIFRANCESCO02:52:5900:00:2500:02:3702:49:57
4641DUSARTOCTAVE02:52:3200:00:2500:02:3602:49:31
476FLORICECILIA02:53:2100:00:2500:02:3802:50:18
4842FRANCESCATOFRANCESCO02:53:2000:00:2500:02:3802:50:17
4943SIGISMONDIMAURIZIO02:54:2200:00:2500:02:4102:51:16
5044MARINI AGOSTINIANDREA02:54:2800:00:2500:02:4102:51:22
5145DELVECCHIOLEONE02:54:3500:00:2500:02:4202:51:28
5246BENETTELLIJACOPO02:54:3600:00:2500:02:4202:51:29
5347GROBA BARGIELAMARCOS02:54:2300:00:2500:02:4102:51:17
5448CHIARETTODEVID02:54:5400:00:2500:02:4202:51:47
5549BOBBOMATTIA02:55:0600:00:2600:02:4302:51:57
5650ZATTARAJEAN-LAURENT02:55:2400:00:2600:02:4402:52:14
5751FITAMANTYANNICK02:55:4600:00:2600:02:4502:52:35
5852VANZETTIMASSIMO02:55:4900:00:2600:02:4502:52:38
5953PADOANMARCO02:55:2700:00:2600:02:4402:52:17
6054MILKUSVALDEMARAS02:55:3300:00:2600:02:4402:52:23
6155COUTINHODIOGO02:56:0500:00:2600:02:4602:52:53
6256ETTORREDONATO02:56:1700:00:2600:02:4602:53:05
6357TSUBOTAKENJI02:56:1500:00:2600:02:4602:53:03
6458BRESSANDAVIDE02:56:1900:00:2600:02:4602:53:07
6559DAL BELLOALESSANDRO02:56:2500:00:2600:02:4702:53:12
6660TOCCHETTOOSCAR02:56:2900:00:2600:02:4702:53:16
6761LAURENTIPIETRO02:56:3700:00:2600:02:4702:53:24
6862K?HLERNICO02:56:4400:00:2600:02:4702:53:31
6963FERREIRAANT?NIO02:56:2800:00:2600:02:4702:53:15
7064IOMMIGIOVANNI02:57:1300:00:2600:02:4902:53:58
7165BROMBINMATTEO02:57:0800:00:2600:02:4802:53:54
7266RAIMONDIRENZO02:57:2800:00:2600:02:4902:54:13
7367PENZOALDO02:57:3800:00:2600:02:5002:54:22
7468RONCALLIGIORGIO02:57:3800:00:2600:02:5002:54:22
7569EGGESVIKERLING02:58:0000:00:2600:02:5102:54:43
7670PRATAVIERAMASSIMO02:58:0800:00:2600:02:5102:54:51
7771CHARBUSK?JIŘÍ02:57:2700:00:2600:02:4902:54:12
7872URSICPAOLO02:58:1100:00:2600:02:5102:54:54
7973BACCOLUIGI02:58:1300:00:2600:02:5102:54:56
8074GUAITINIMICHELE02:58:0700:00:2600:02:5102:54:50
8175MENINLUCA02:58:1700:00:2600:02:5102:55:00
8276CETTOLOCLAUDIO02:58:2400:00:2600:02:5202:55:06
8377VIDOTTOANDREA02:58:2700:00:2600:02:5202:55:09
8478PAGLIARINGIAMPAOLO02:58:2000:00:2600:02:5202:55:02
8579LAZZERIALESSIO02:58:3600:00:2600:02:5202:55:18
8680TRENTINVIRGINIO02:58:4200:00:2600:02:5302:55:23
8781DONA’PAOLO02:58:3800:00:2600:02:5202:55:20
8882TURRIMARCO02:58:4500:00:2700:02:5302:55:25
8983SANCHEZ MORACARLOS ALBERTO02:58:5000:00:2700:02:5302:55:30
9084BUOŽYSEGIDIJUS02:58:3100:00:2600:02:5202:55:13
9185MARINALESSANDRO02:58:4900:00:2700:02:5302:55:29
9286PENZOFRANCESCO02:59:0600:00:2700:02:5402:55:45
937CUNICOMAURIZIA02:59:1500:00:2700:02:5402:55:54
9487BOSCOLO BOMBADAVIDE02:59:1700:00:2700:02:5402:55:56
9588MANCINIROMANO02:59:2200:00:2700:02:5402:56:01
9689MENEGHELLUCIANO02:59:2000:00:2700:02:5402:55:59
9790PARINICARLO02:59:1600:00:2700:02:5402:55:55
9891RIZZIMICHELE02:59:1600:00:2700:02:5402:55:55
9992KANENEIL02:59:1600:00:2700:02:5402:55:55
10093CAPUZZOMICHELE02:59:2800:00:2700:02:5502:56:06
10194OBERHOLZERLUCA02:59:1600:00:2700:02:5402:55:55
10295GUIDIFRANCK02:59:3700:00:2700:02:5502:56:15
10396FRISONGIUSEPPE02:59:3700:00:2700:02:5502:56:15
10497MASONSTEFANO02:59:4900:00:2700:02:5602:56:26
10598BAEKELANDTJENS02:59:3800:00:2700:02:5502:56:16
10699GASPARRINIROBERTO02:59:5800:00:2700:02:5602:56:35
107100PALADINIANDREA02:59:2700:00:2700:02:5502:56:05
108101PACQUOLADAVIDE02:59:5900:00:2700:02:5602:56:36
109102LONGHIMICHELE03:00:1000:00:2700:02:5602:56:47
110103ROSSIALESSANDRO03:00:1500:00:2700:02:5702:56:51
111104SCARPAROANDREA03:00:2300:00:2700:02:5702:56:59
112105KALBERMATTENTIMON03:00:3300:00:2700:02:5702:57:09
113106ALBINIGIOVANNI BATTISTA03:00:3700:00:2700:02:5802:57:12
114107LAZZARIMASSIMILIANO03:00:4100:00:2700:02:5802:57:16
115108FRAGASSICLAUDIO03:00:5300:00:2700:02:5802:57:28
116109CONTEFRANCESCO MARCELLO03:00:5500:00:2700:02:5802:57:30
117110POLLONIMICHELE03:01:2400:00:2700:03:0002:57:57
118111MIOTTOILARIO03:01:2100:00:2700:03:0002:57:54
119112BONDICLAUDIO03:01:3600:00:2700:03:0002:58:09
120113SEGATOALESSIO03:01:5400:00:2700:03:0102:58:26
121114TETTAMANTISTEFANO03:01:5600:00:2700:03:0102:58:28
122115FACCHINMATTIA03:02:3700:00:2800:03:0302:59:06
123116DABALAFILIPPO03:02:5800:00:2800:03:0402:59:26
124117PINO MARTINEZEDUARDO03:02:4200:00:2800:03:0302:59:11
125118MAZZAROTTOCRISTIAN03:02:5800:00:2800:03:0402:59:26
126119GUADAGNINIGIUSEPPE03:03:1900:00:2800:03:0502:59:46
127120COSTAPERARIAGUIDO03:03:2000:00:2800:03:0502:59:47
1288PIERETTILAURA03:03:1800:00:2800:03:0502:59:45
129121BRIGOROBERTO03:03:2700:00:2800:03:0502:59:54
130122LACADI PAOLIGIACOMO03:03:2800:00:2800:03:0502:59:55
131123LAURETJORDY03:03:2800:00:2800:03:0502:59:55
132124GASPERONIANDREA03:03:4900:00:2800:03:0603:00:15
133125NICOLODISTEFANO03:03:5300:00:2800:03:0603:00:19
134126MASSENZLEONARDO03:04:1600:00:2800:03:0703:00:41
135127TOMASILUCA03:04:2100:00:2800:03:0703:00:46
136128ROUSSELETTH?O03:02:4200:00:2800:03:0302:59:11
137129PINTORIFRANCESCO03:03:5600:00:2800:03:0603:00:22
138130SCOPELEMANUELE03:04:3900:00:2800:03:0803:01:03
139131ZOIADEVID03:04:5100:00:2800:03:0803:01:15
140132MARIOTTODENIS03:05:0100:00:2800:03:0903:01:24
141133ROSSIANDREA03:05:0100:00:2800:03:0903:01:24
142134MENONMARCO03:05:0600:00:2800:03:0903:01:29
143135PRATOALESSANDRO03:04:5500:00:2800:03:0903:01:18
144136TARANTOLAMARCO03:05:2400:00:2800:03:1003:01:46
145137PROVINCIALINICOLA03:05:3000:00:2800:03:1003:01:52
146138ROBALINHOH?LDER03:05:3100:00:2800:03:1003:01:53
147139BERTIROMAIN03:05:2400:00:2800:03:1003:01:46
148140PECILEMATTEO03:05:3400:00:2800:03:1003:01:56
149141HOUGHTONJACK03:05:4000:00:2800:03:1103:02:01
150142ALMANDUSAN03:05:5900:00:2800:03:1103:02:20
151143COCETTIROBERTO03:06:1300:00:2800:03:1203:02:33
152144RIZZIMATTEO03:06:0600:00:2800:03:1203:02:26
1539ZACCAGNIILARIA03:06:0800:00:2800:03:1203:02:28
154145PARATICOTITO03:03:1500:00:2800:03:0402:59:43
155146MARIANIMARCO AUGUSTO03:04:1700:00:2800:03:0703:00:42
156147BANDIERARONNY03:06:1900:00:2900:03:1203:02:38
157148KUNZMATTHIAS03:06:1600:00:2800:03:1203:02:36
158149POULIDORGUILLAUME03:06:3600:00:2900:03:1303:02:54
159150BRUNIFEDERICO03:06:4200:00:2900:03:1303:03:00
160151BERLINLUCA03:06:4400:00:2900:03:1303:03:02
161152BANDINIALBERTO03:06:5000:00:2900:03:1303:03:08
162153GRECODAVIDE03:06:5100:00:2900:03:1303:03:09
163154BONSEMBIANTEMICHAEL03:07:0200:00:2900:03:1403:03:19
164155PREMG?NTHER03:07:1500:00:2900:03:1403:03:32
165156PICCOLOMARCO03:07:0700:00:2900:03:1403:03:24
166157AKMANSGUNTARS03:07:2200:00:2900:03:1503:03:38
167158NANDITIZIANO03:07:2400:00:2900:03:1503:03:40
168159DEHOUCKBENJAMIN03:05:1400:00:2800:03:0903:01:37
169160PASIALISDIMITRI03:07:3000:00:2900:03:1503:03:46
170161DI BONIFACIOENZO03:07:3200:00:2900:03:1503:03:48
171162VITULANOMATTEO03:07:4800:00:2900:03:1603:04:03
172163VAN HOYWEGHENNIGEL03:07:2800:00:2900:03:1503:03:44
173164TRICARICOMARCO03:07:3800:00:2900:03:1503:03:54
174165DE TONILEONARDO03:07:5100:00:2900:03:1603:04:06
175166BALDASSOCRISTIANO03:07:4800:00:2900:03:1603:04:03
176167DELBONOFABIO03:07:4200:00:2900:03:1603:03:57
177168GORGOSALICESTEFANO03:07:5100:00:2900:03:1603:04:06
178169FRANCESCHIANTONIO03:07:5100:00:2900:03:1603:04:06
179170BELLEGGIASIMONE03:07:2000:00:2900:03:1503:03:36
180171SCHILLEBEECKXROBIN03:04:4400:00:2800:03:0803:01:08
181172AVONDIEGO03:08:1300:00:2900:03:1703:04:27
182173VIOROBERTO03:08:1200:00:2900:03:1703:04:26
183174GRIMAZMARCO03:08:1500:00:2900:03:1703:04:29
184175ARZENTONIVO03:06:1600:00:2800:03:1203:02:36
185176BATTAGLIASTEFANO03:08:2900:00:2900:03:1803:04:42
186177SCARAMUZZAANDREA03:08:3700:00:2900:03:1803:04:50
187178BONORAMAURO03:08:3800:00:2900:03:1803:04:51
188179MOCELLINALESSANDRO03:08:4700:00:2900:03:1803:05:00
189180MAHJOUBIABDELAZIZ03:08:5100:00:2900:03:1803:05:04
190181PETITTOCLAUDIO03:08:1300:00:2900:03:1703:04:27
191182SEBASTIANIFABRIZIO03:06:5900:00:2900:03:1403:03:16
192183BURDISSOGABRIELE03:08:5100:00:2900:03:1803:05:04
193184RISOARIEL03:08:5400:00:2900:03:1903:05:06
194185MARCHESISIMONE03:09:0000:00:2900:03:1903:05:12
195186ZAMBONIAUGUSTO03:09:0100:00:2900:03:1903:05:13
196187POMAANDREA03:07:0200:00:2900:03:1403:03:19
197188LIONELLODAVIDE03:09:0400:00:2900:03:1903:05:16
198189BERTAGNINICOL?03:08:5600:00:2900:03:1903:05:08
199190MILAZZONICOLA03:09:0300:00:2900:03:1903:05:15
200191RAIMONDODOMENICO03:09:1600:00:2900:03:1903:05:28
201192POLO PERUCCHINGABRIELE03:07:4500:00:2900:03:1603:04:00
202193ROSSIANTONIO03:09:3600:00:2900:03:2003:05:47
203194MARAZZATOMAURO03:09:2700:00:2900:03:2003:05:38
204195MUCELLIALESSANDRO03:09:2300:00:2900:03:2003:05:34
20510CORBELLAFULVIA03:09:3300:00:2900:03:2003:05:44
206196BALESTRAFRANK03:08:4100:00:2900:03:1803:04:54
207197MESSINEOGIUSEPPE03:09:4400:00:2900:03:2103:05:54
208198MANFRINSTEFANO03:09:3700:00:2900:03:2003:05:48
209199GIROTTOVALERIO03:09:4900:00:2900:03:2103:05:59
210200GIROTTOCRISTIANO03:09:4900:00:2900:03:2103:05:59
211201SAEZADRIAN03:09:5800:00:2900:03:2103:06:08
212202MULAZZIGIANNI03:09:4700:00:2900:03:2103:05:57
213203GEORGEJAMES03:05:0300:00:2800:03:0903:01:26
214204HASSOUXDIDIER03:09:4200:00:2900:03:2103:05:52
215205SIMIONATOPAOLO03:10:1300:00:3000:03:2203:06:21
216206BIAGIONIMASSIMO03:09:4100:00:2900:03:2003:05:52
217207PULESEFEDERICO03:10:1700:00:3000:03:2203:06:25
218208DJAOUANIABDELKADER03:10:2100:00:3000:03:2203:06:29
219209ROUSSEAUVINCENT03:10:1800:00:3000:03:2203:06:26
220210MAISTOAMEDEO03:09:5400:00:2900:03:2103:06:04
221211RIVAMARCO03:10:3100:00:3000:03:2303:06:38
222212RONCHIERWIN03:10:4600:00:3000:03:2303:06:53
223213MANZIOLIRUGGERO03:10:4000:00:3000:03:2303:06:47
224214TOSCANOANTONIO03:10:3500:00:3000:03:2303:06:42
225215DORIANICOLA03:10:5500:00:3000:03:2403:07:01
226216FIAMENIGIOVANNI03:11:0800:00:3000:03:2403:07:14
227217BELTRAMEGIANNI03:11:1800:00:3000:03:2403:07:24
228218CARRERDENIS03:11:2200:00:3000:03:2503:07:27
229219PANIZZOLOGIACOMO03:11:2100:00:3000:03:2503:07:26
230220SACCONENRICO VALENTINO03:08:5000:00:2900:03:1803:05:03
231221SPINIELLIMATTEO03:11:1100:00:3000:03:2403:07:17
232222COLAUTTOSTEFANO03:11:3100:00:3000:03:2503:07:36
233223FREZZACYRIL03:11:3900:00:3000:03:2503:07:44
234224GERUSSICRISTIAN03:11:4200:00:3000:03:2503:07:47
235225NEGRETTOPAOLO03:11:4200:00:3000:03:2503:07:47
236226VERNACIFRANCESCO03:11:2800:00:3000:03:2503:07:33
237227GALLIERAMARCO03:11:4100:00:3000:03:2503:07:46
238228CAJANIMASSIMO03:11:4000:00:3000:03:2503:07:45
239229MAZZAROLOFABIO03:11:5800:00:3000:03:2603:08:02
240230NALDIMATTEO03:11:4700:00:3000:03:2603:07:51
241231COSTAGANNAGIORDANO03:11:5400:00:3000:03:2603:07:58
242232BUSINRICCARDO03:11:5400:00:3000:03:2603:07:58
243233GUARINOVINCENZO03:11:4700:00:3000:03:2603:07:51
244234WIBMERJOHANN03:11:5200:00:3000:03:2603:07:56
24511SANTAMARIAMARTA03:12:2600:00:3000:03:2703:08:29
246235MONTORSIMARCO03:12:0900:00:3000:03:2603:08:13
247236MAURIMASSIMILIANO03:12:1800:00:3000:03:2703:08:21
248237POSADOSERGIO03:12:3000:00:3000:03:2703:08:33
249238GIACOMINANDREA03:12:1900:00:3000:03:2703:08:22
250239LARATORELUCA03:12:4700:00:3000:03:2803:08:49
251240CANTERANIENRICO03:12:2500:00:3000:03:2703:08:28
252241MAHARJANRAM KRISHNA03:12:3600:00:3000:03:2803:08:38
253242BRAVINALEX03:11:0800:00:3000:03:2403:07:14
254243LUCINI MATEODIEGO03:10:3700:00:3000:03:2303:06:44
255244LA SALANDRAANTHONY03:13:1000:00:3000:03:2903:09:11
256245MARTIGNONIMASSIMILIANO03:13:0200:00:3000:03:2903:09:03
257246BERTACCHINISIMONE03:13:1300:00:3000:03:2903:09:14
258247SARTOFABIO03:13:1700:00:3000:03:2903:09:18
25912GALAVOTTICHIARA03:13:0900:00:3000:03:2903:09:10
260248TRIVELLINFEDERICO03:13:3500:00:3000:03:3003:09:35
261249HOULIHANNOEL03:13:3300:00:3000:03:3003:09:33
262250SANTILLIMARIO03:13:3000:00:3000:03:3003:09:30
263251GIURANNOSERGIO03:13:3800:00:3000:03:3003:09:38
264252BASSOEDDY03:13:1300:00:3000:03:2903:09:14
265253TRESOLDIALESSANDRO03:13:0900:00:3000:03:2903:09:10
266254VENTURAALESSANDRO03:13:4400:00:3000:03:3003:09:44
267255STELLCRISTIAN03:13:4700:00:3000:03:3003:09:47
268256GASPARATOGIACOMO03:13:2400:00:3000:03:2903:09:25
269257LLACUNACRISTIAN03:13:3500:00:3000:03:3003:09:35
270258KONDRATOWYOHANN03:13:1500:00:3000:03:2903:09:16
271259KORZE HINOJOSADAVID03:11:2600:00:3000:03:2503:07:31
27213VIANELLOVALENTINA03:13:2500:00:3000:03:3003:09:25
273260DE ROSSIALESSIO03:14:0400:00:3000:03:3103:10:03
274261BIRALELIA03:14:0400:00:3000:03:3103:10:03
275262WRIGHTJAMIE03:11:2500:00:3000:03:2503:07:30
276263CORTEMANUEL03:12:2900:00:3000:03:2703:08:32
277264CHINELLATOEMILIO03:13:4600:00:3000:03:3003:09:46
278265SOSSELLADAVIDE03:14:0500:00:3000:03:3103:10:04
279266LAMERAROBERTO03:13:5900:00:3000:03:3103:09:58
280267TAVERALORENZO03:14:1500:00:3100:03:3203:10:12
281268TREVISANNICOLA03:12:4200:00:3000:03:2803:08:44
282269SIMIONIALESSANDRO03:13:3200:00:3000:03:3003:09:32
283270BEDINERMES03:14:2900:00:3100:03:3203:10:26
284271CASIRAGHIGILBERTO03:13:5700:00:3000:03:3103:09:56
285272MASIEROROBERTO03:14:0700:00:3100:03:3103:10:05
286273NOVELLONICOLA03:14:3600:00:3100:03:3203:10:33
287274RIGOALEX03:14:1700:00:3100:03:3203:10:14
288275FILIPPOZZIFILIPPO03:12:5400:00:3000:03:2803:08:56
289276DE COLO’NELLO BRUNO03:14:2500:00:3100:03:3203:10:22
290277MARTINORIANO03:14:2500:00:3100:03:3203:10:22
291278TEEVANPETE03:14:4200:00:3100:03:3303:10:38
292279FORNERAALESSANDRO03:14:4000:00:3100:03:3203:10:37
293280BORIEROMATTEO03:14:5300:00:3100:03:3303:10:49
294281MELPIGNANOANDREA03:14:5900:00:3100:03:3303:10:55
295282S?NCHEZ D?AZSERGIO03:15:0700:00:3100:03:3403:11:02
296283MARESIAROBERTO03:14:3600:00:3100:03:3203:10:33
297284BALDRATISTEFANO03:15:1000:00:3100:03:3403:11:05
298285MATTIUSSIGABRIELE03:14:4200:00:3100:03:3303:10:38
299286SEREINIGREN?03:15:0000:00:3100:03:3303:10:56
300287FRUCITOMMASO03:15:1400:00:3100:03:3403:11:09

Lascia un commento

Il tuo indirizzo email non sarà pubblicato. I campi obbligatori sono contrassegnati *